Temperature
11 10 10 11 12 12 13 13 13 14 14 13 12 12 13 13 13 13 13 13 12 12 11 11 11 10 10 10 10 10 10 10 10 10 10 10 10 11 11 11 11 11 12 12
10 10 11 12 13 12 12 12 12 13 14 13 12 12 12 13 13 13 13 12 12 11 11 11 10 10 10 10 10 10 10 10 10 10 10 10 10 10 11 11 11 11 11 12
10 12 12 12 12 12 12 11 11 12 12 12 11 11 12 12 13 12 12 12 12 11 11 10 10 10 9 9 9 9 9 9 10 10 10 10 10 10 10 10 11 11 11 11
11 12 12 11 11 12 11 12 12 12 10 10 11 9 11 12 12 11 11 11 11 11 10 10 9 9 9 9 9 9 9 9 9 9 10 10 10 9 10 10 10 10 10 11
10 11 11 11 11 12 11 12 11 11 10 9 10 9 10 12 11 11 11 11 11 11 10 9 9 9 9 9 9 9 9 9 9 9 9 9 9 9 9 9 10 10 10 10
11 11 11 11 11 11 11 11 10 10 9 8 9 9 10 11 11 11 11 11 11 10 10 9 9 9 8 8 8 8 9 8 9 8 9 9 9 9 9 9 9 9 9 10
9 10 11 11 10 10 10 9 8 8 7 8 11 10 10 11 12 11 11 11 10 10 9 9 9 8 8 8 8 8 8 8 8 8 8 8 8 8 8 9 9 9 9 9
8 8 10 9 9 9 9 9 8 8 9 9 10 9 10 11 11 11 11 11 10 9 9 8 8 8 8 8 8 7 7 8 8 8 8 8 8 8 8 8 8 9 9 9
8 9 10 10 10 10 9 8 10 9 9 9 10 10 10 10 10 10 10 10 9 9 8 8 8 7 7 7 7 7 7 7 7 7 7 7 7 8 8 8 8 8 8 8
8 8 9 9 9 9 9 9 8 7 8 8 10 10 9 9 9 9 9 8 9 8 8 8 7 7 7 7 7 7 7 7 7 7 7 7 7 7 7 8 8 8 8 8
7 7 7 8 7 7 7 8 8 7 8 8 9 9 10 9 9 9 8 8 8 8 7 7 7 7 7 7 6 6 6 6 6 6 6 6 6 6 7 7 7 7 7 7
6 6 6 7 8 8 8 8 8 7 7 8 8 8 9 9 9 8 8 8 7 7 7 7 6 6 6 6 6 6 6 6 6 6 6 6 6 6 6 6 6 7 7 7
5 5 5 6 6 7 7 7 7 7 7 6 7 8 8 8 8 8 7 7 7 6 6 6 6 5 5 5 5 6 6 5 6 5 5 5 5 5 6 6 6 6 6 6
5 4 4 5 6 5 5 6 7 6 5 6 7 8 7 7 7 7 7 6 6 6 5 5 5 5 5 5 5 5 5 5 5 5 5 5 5 5 5 5 5 5 5 5
4 3 4 5 6 6 5 5 6 6 5 5 6 8 8 7 6 6 6 6 5 5 5 5 5 5 5 5 5 5 5 5 5 5 5 5 5 5 5 5 5 5 5 5
3 2 3 3 5 5 5 6 6 6 6 6 6 7 8 7 7 6 6 5 5 5 4 4 4 4 4 4 4 5 5 4 4 4 4 4 4 4 4 4 5 5 4 4
1 1 2 2 4 4 3 5 5 5 6 6 5 6 7 6 6 5 5 5 5 5 4 4 4 4 4 4 4 4 4 4 4 4 4 4 4 4 4 4 4 4 4 4
1 1 1 2 2 1 4 5 5 5 5 5 5 5 5 5 6 6 5 5 5 4 4 4 3 3 4 4 4 4 4 4 3 3 3 3 4 3 3 4 4 3 3 3
2 1 1 1 1 2 3 4 4 4 4 4 4 4 4 5 5 4 5 4 4 4 3 3 3 3 3 3 3 3 3 3 3 3 3 3 3 3 3 3 3 3 3 3
2 1 0 0 1 1 2 3 4 4 2 3 3 3 3 3 2 2 4 4 3 3 3 2 2 2 2 2 2 2 2 2 2 2 2 2 2 2 2 2 2 2 2 2
-0 -0 -0 -0 0 1 1 2 3 2 1 2 3 2 2 2 2 2 2 2 2 2 2 2 2 2 2 2 2 2 2 2 2 2 2 2 2 2 2 2 2 2 1 1
-1 -1 -1 -0 -0 -0 1 1 1 1 1 1 2 1 1 1 1 1 1 1 1 1 1 1 1 1 1 1 1 1 1 1 1 1 1 1 1 1 1 1 1 1 1 1
-1 -1 -1 -1 -1 -0 0 0 1 1 1 0 0 0 0 -0 -0 -0 -0 -0 -0 -0 -0 -0 0 -0 -0 0 0 0 0 0 0 0 0 0 0 1 0 0 0 0 0 0
-1 -1 -1 -1 -1 -1 -1 -0 -0 -0 -0 -0 -1 -1 -1 -1 -1 -1 -1 -1 -1 -1 -1 -1 -1 -1 -1 -1 -0 -0 -0 -0 -0 -0 -0 -0 -0 -0 -0 -0 -0 -0 -1 -1
-3 -2 -2 -2 -2 -1 -1 -1 -1 -1 -1 -1 -1 -1 -2 -2 -2 -2 -2 -2 -2 -2 -2 -1 -1 -1 -1 -1 -1 -1 -1 -1 -1 -1 -1 -1 -1 -1 -1 -1 -1 -1 -1 -1
-3 -3 -3 -3 -2 -3 -2 -2 -2 -2 -2 -2 -2 -2 -2 -2 -3 -3 -3 -3 -3 -2 -2 -2 -2 -2 -2 -2 -2 -2 -1 -1 -1 -1 -1 -1 -1 -1 -1 -2 -2 -2 -2 -2
Wind_Speed
10 8 12 13 15 12 9 10 11 9 4 6 10 13 11 9 8 8 7 7 7 7 5 4 4 4 4 4 4 3 3 3 3 3 3 3 3 3 3 3 4 4 4 5
8 15 16 11 11 13 14 14 13 10 4 5 10 14 12 10 10 8 7 7 7 6 5 5 5 5 5 5 4 4 3 3 4 3 3 3 3 2 3 3 4 4 4 5
17 8 10 13 13 13 15 14 12 10 6 7 9 11 11 9 8 7 7 6 6 6 6 6 6 5 4 4 4 4 4 3 3 3 3 3 2 2 2 3 3 3 4 4
15 14 9 11 13 14 13 9 9 9 7 6 5 7 8 7 8 8 8 7 6 5 5 6 6 5 5 4 4 4 4 4 3 3 4 5 4 3 2 3 3 4 4 4
9 10 12 13 12 11 7 2 5 7 8 9 8 7 8 6 8 9 8 7 6 6 6 7 6 5 5 4 4 4 5 4 3 3 5 5 4 2 2 3 4 4 3 3
12 7 8 10 6 6 4 3 4 5 5 9 11 10 8 6 7 6 6 6 6 6 6 6 6 6 5 5 5 5 5 4 4 3 4 5 5 4 4 4 3 3 3 2
11 12 8 4 5 7 7 4 3 4 6 8 7 8 7 3 4 5 6 6 7 7 6 6 7 6 6 6 6 5 5 4 4 4 4 4 4 4 5 4 4 4 3 2
9 9 12 9 10 8 11 10 7 6 5 4 5 8 4 2 4 4 4 5 6 7 6 6 6 6 6 7 6 6 5 5 4 4 3 3 4 3 3 3 3 3 3 3
7 6 6 10 8 8 8 10 7 4 5 5 6 4 2 3 4 4 5 5 5 6 6 6 5 5 5 6 6 6 6 5 5 4 3 4 3 3 4 3 3 2 3 3
5 6 4 5 4 8 6 5 4 5 5 6 7 7 5 5 6 5 5 4 4 4 5 5 5 5 5 5 5 6 6 5 5 5 4 4 4 4 4 4 3 3 3 3
6 5 3 5 9 10 8 6 6 5 5 4 5 3 0 5 5 5 4 3 4 4 5 5 5 5 5 5 5 5 6 5 5 5 4 4 4 4 4 4 3 3 3 3
4 4 5 7 6 6 8 9 8 5 6 5 4 4 2 3 4 4 4 3 3 4 4 4 5 5 5 5 5 5 5 6 6 5 5 5 4 4 4 4 3 3 3 3
2 3 4 4 3 4 5 7 9 7 4 5 6 5 2 4 4 3 3 3 2 3 3 3 4 5 5 5 5 5 5 6 6 6 5 5 5 4 4 4 3 3 3 3
4 4 7 8 4 2 5 7 9 8 7 8 9 7 3 1 0 0 1 2 2 3 3 3 3 4 5 5 6 6 5 5 6 6 5 5 5 5 4 4 3 3 3 3
3 6 8 10 8 6 7 9 10 11 9 9 9 9 6 5 4 3 3 2 3 3 3 4 4 4 4 5 5 5 6 5 5 6 6 5 5 5 4 4 3 3 3 2
4 5 6 9 9 9 10 10 11 12 11 11 11 12 5 2 1 1 2 3 3 3 3 3 4 4 4 5 5 5 5 5 5 5 5 5 5 4 4 4 4 3 2 2
4 4 5 8 8 7 9 9 9 8 7 8 11 10 4 2 3 4 4 4 4 4 3 3 3 3 4 4 5 5 5 5 5 5 5 5 5 5 4 4 4 3 3 3
7 6 4 5 4 8 5 2 5 7 8 7 6 5 3 3 3 2 2 3 2 2 3 3 3 3 3 4 4 5 5 6 5 4 4 4 5 5 4 4 3 3 3 2
9 7 4 4 6 8 4 3 2 4 6 4 4 5 4 2 1 2 1 1 1 1 2 2 3 3 3 4 5 6 5 5 5 4 3 3 4 4 4 4 3 3 3 2
7 7 5 4 5 6 4 5 5 3 5 4 4 3 3 2 2 3 2 2 3 3 3 3 3 4 4 4 5 6 5 4 4 3 3 3 3 4 4 4 3 2 2 2
3 5 7 7 6 3 4 7 4 2 4 5 4 4 3 2 1 1 3 3 4 4 4 4 4 4 4 4 5 5 4 3 3 3 3 3 2 3 3 3 2 3 2 2
3 3 4 5 5 4 5 4 2 3 4 5 5 4 3 3 4 3 4 5 5 4 4 4 4 4 4 4 5 4 3 3 3 3 3 3 2 2 2 2 2 2 3 2
2 2 2 1 2 4 4 3 4 4 4 5 5 5 4 4 3 4 4 4 4 4 4 4 4 4 4 4 4 4 2 3 3 4 3 2 2 2 2 3 3 2 2 2
4 5 2 2 3 6 7 7 7 7 6 5 5 4 4 3 3 3 4 4 4 4 3 3 4 4 3 3 3 3 3 3 4 3 2 2 2 2 2 2 2 2 2 2
6 5 4 3 5 5 7 8 8 8 7 6 5 4 3 3 2 2 3 3 3 3 3 3 3 3 3 3 3 2 2 3 3 3 2 2 2 2 1 1 1 1 2 3
5 4 4 4 5 5 7 9 8 7 7 6 6 5 4 3 2 2 2 2 2 3 3 3 3 3 3 2 2 1 2 2 3 2 1 1 1 1 1 1 1 1 2 2
Wind_Direction
194 212 218 216 217 236 265 271 273 274 260 238 249 258 258 250 238 232 227 220 214 211 193 171 160 154 154 150 147 155 159 168 158 169 164 166 172 168 159 150 152 152 151 148
209 227 229 230 231 236 250 262 270 281 258 266 271 270 262 245 235 225 221 218 211 200 183 169 159 154 160 155 154 152 148 164 169 180 177 177 169 171 166 158 155 147 146 152
221 222 214 226 234 237 240 243 254 269 286 262 276 277 248 236 224 216 213 208 203 190 179 170 161 158 152 151 156 164 160 162 164 168 156 150 133 134 154 156 159 142 132 131
236 232 223 222 228 228 245 240 248 261 274 265 226 279 258 221 214 210 207 201 194 182 168 160 159 156 159 159 158 158 152 145 151 152 147 147 149 160 174 159 144 124 116 119
233 214 220 229 229 224 233 255 252 252 257 270 245 253 267 209 218 207 197 193 184 175 160 158 159 157 151 149 155 156 144 137 131 143 144 148 139 136 126 126 128 130 117 106
244 234 220 228 230 221 211 244 264 248 248 255 231 225 264 217 210 189 181 179 172 165 157 157 156 152 146 148 149 148 141 141 137 142 150 148 144 141 137 134 138 129 120 110
240 234 225 203 206 199 193 180 212 211 217 242 211 216 246 224 178 172 171 168 161 158 159 162 160 159 155 151 145 141 143 141 147 148 148 149 142 144 151 149 143 133 127 117
226 233 205 201 209 196 200 197 197 213 228 244 205 225 238 179 145 137 138 144 148 154 162 163 162 160 155 149 147 145 142 134 138 137 138 131 124 135 141 136 136 142 144 141
229 238 184 193 201 198 198 214 233 269 288 269 237 213 208 175 139 139 138 137 140 151 159 162 158 157 152 152 155 152 149 145 142 141 141 131 123 121 122 125 121 128 133 135
268 259 211 173 181 220 228 204 191 207 225 245 249 227 209 182 188 173 160 154 145 141 152 155 157 161 160 155 153 154 154 157 145 142 148 143 133 125 125 122 120 113 112 117
262 256 227 182 197 198 200 213 208 208 229 230 257 255 157 167 165 163 160 142 140 136 149 154 156 157 155 148 148 152 154 146 143 145 143 133 126 122 120 118 116 112 106 113
246 254 243 226 212 210 203 205 201 204 228 227 253 264 23 85 114 125 126 106 107 118 136 148 154 152 149 154 156 157 154 150 148 145 144 137 130 123 119 117 113 109 109 112
267 242 252 229 210 210 219 220 220 231 248 234 232 248 45 72 84 103 117 112 108 110 124 139 150 158 158 160 160 154 154 153 147 144 145 141 138 132 129 127 124 117 113 117
287 241 229 238 256 229 239 240 233 225 228 242 240 252 267 244 157 201 143 139 135 141 149 153 155 162 163 163 160 154 153 151 147 147 152 152 153 147 143 137 131 127 125 125
286 257 259 271 281 273 261 246 236 235 234 235 252 259 261 225 209 199 177 167 163 166 173 171 166 169 162 160 161 159 153 150 148 152 157 158 153 144 139 139 137 131 129 124
304 276 284 276 274 273 270 254 242 242 244 249 261 267 271 208 186 176 182 193 203 193 181 176 170 168 165 163 161 152 149 154 150 153 157 152 146 143 142 142 137 130 132 126
259 260 270 266 273 285 257 241 236 235 238 241 252 260 279 238 217 216 212 209 214 198 183 177 175 173 166 163 156 152 148 143 145 148 148 149 146 146 149 149 143 147 152 140
249 252 250 265 272 248 250 237 239 242 250 255 260 275 278 243 223 223 215 197 190 179 176 177 169 158 146 137 134 139 139 140 142 145 148 150 150 150 151 151 157 165 159 155
231 237 245 237 245 261 274 305 288 261 271 295 282 293 299 323 351 326 347 96 147 171 154 148 140 133 127 128 132 132 135 139 142 147 152 155 155 155 155 160 167 168 158 165
232 235 241 238 243 255 284 310 305 268 265 321 317 309 321 357 275 283 355 55 76 81 93 101 109 108 112 118 125 127 131 133 143 147 145 139 143 154 164 170 172 170 167 177
245 231 230 239 248 271 325 327 340 216 272 326 328 332 335 320 292 334 42 54 74 71 80 89 100 102 106 113 120 125 128 138 144 135 130 131 137 152 166 172 171 161 163 166
296 265 244 240 243 261 342 351 345 306 332 344 352 6 16 22 26 53 63 62 63 63 75 83 93 92 92 104 116 121 130 135 131 130 133 138 140 155 154 151 159 159 162 165
318 311 301 265 262 329 345 357 346 349 358 359 3 9 25 32 31 47 52 57 56 60 64 70 89 87 81 91 108 118 122 120 125 125 133 139 140 154 161 157 159 165 172 178
334 345 332 321 344 348 357 5 6 12 17 11 11 14 34 42 47 51 51 56 55 52 58 70 82 84 79 78 80 96 107 110 117 126 135 139 138 142 138 144 159 172 184 194
321 327 325 319 328 346 358 1 1 4 10 13 13 21 30 50 51 48 49 47 56 55 50 60 80 87 84 78 69 65 95 114 121 131 142 142 145 150 144 138 178 201 217 209
346 341 333 325 343 338 331 343 354 4 5 9 13 13 17 29 51 55 47 42 52 61 60 65 70 75 75 77 70 59 90 115 128 129 131 144 158 162 158 143 30 345 254 252
Height
1474 1477 1474 1470 1470 1469 1467 1467 1467 1462 1459 1462 1462 1459 1456 1455 1455 1455 1456 1457 1458 1460 1462 1463 1465 1466 1468 1468 1469 1470 1472 1473 1474 1476 1478 1481 1484 1487 1489 1492 1495 1498 1501 1503
1471 1468 1463 1464 1464 1466 1467 1468 1466 1461 1458 1460 1459 1454 1450 1448 1448 1449 1450 1452 1453 1455 1457 1459 1461 1462 1464 1465 1466 1468 1469 1470 1472 1474 1476 1479 1482 1484 1487 1490 1493 1495 1498 1500
1461 1456 1457 1460 1461 1463 1463 1465 1464 1463 1459 1458 1460 1454 1445 1441 1442 1444 1445 1447 1449 1451 1453 1455 1457 1459 1460 1461 1463 1465 1466 1468 1469 1472 1474 1477 1480 1482 1485 1487 1490 1493 1495 1497
1455 1453 1453 1455 1456 1458 1460 1456 1458 1460 1465 1465 1460 1463 1441 1437 1438 1439 1441 1442 1444 1447 1449 1451 1453 1455 1457 1459 1461 1462 1464 1466 1467 1469 1471 1474 1476 1479 1481 1484 1488 1490 1493 1495
1448 1447 1450 1451 1450 1452 1453 1455 1457 1459 1463 1464 1458 1461 1442 1433 1435 1435 1436 1438 1440 1443 1446 1447 1449 1451 1454 1456 1458 1460 1461 1463 1465 1466 1468 1471 1474 1477 1479 1482 1485 1488 1490 1493
1444 1443 1444 1445 1446 1449 1452 1456 1457 1459 1463 1466 1452 1455 1440 1432 1428 1429 1432 1434 1437 1440 1443 1445 1447 1449 1451 1453 1455 1457 1459 1461 1463 1465 1466 1468 1471 1475 1477 1480 1482 1485 1488 1491
1443 1441 1441 1442 1446 1448 1451 1459 1466 1466 1467 1457 1438 1441 1435 1424 1422 1424 1428 1431 1434 1437 1440 1442 1444 1446 1448 1450 1452 1454 1457 1459 1460 1463 1464 1467 1470 1473 1475 1478 1480 1482 1485 1488
1442 1440 1436 1438 1440 1444 1446 1450 1458 1459 1453 1443 1436 1437 1430 1421 1420 1422 1426 1429 1432 1435 1437 1440 1442 1443 1445 1447 1450 1452 1455 1456 1458 1460 1462 1465 1468 1471 1474 1476 1478 1480 1483 1486
1436 1433 1427 1430 1433 1437 1442 1445 1441 1447 1444 1445 1434 1426 1425 1420 1421 1423 1426 1428 1430 1433 1435 1437 1440 1442 1443 1445 1448 1451 1453 1455 1457 1459 1461 1463 1466 1469 1472 1474 1477 1479 1481 1483
1433 1433 1428 1429 1433 1434 1436 1437 1444 1449 1449 1443 1428 1423 1425 1423 1422 1423 1425 1427 1429 1431 1434 1436 1438 1440 1442 1444 1446 1449 1452 1454 1456 1458 1460 1462 1465 1467 1470 1472 1474 1476 1479 1481
1433 1435 1432 1431 1432 1432 1436 1438 1437 1440 1439 1439 1434 1428 1415 1417 1418 1421 1424 1426 1428 1430 1432 1434 1436 1438 1440 1442 1445 1447 1450 1452 1454 1456 1458 1460 1463 1465 1468 1470 1472 1475 1477 1479
1434 1435 1433 1428 1425 1424 1427 1429 1433 1441 1438 1432 1433 1430 1417 1416 1417 1420 1423 1426 1427 1429 1431 1432 1434 1436 1438 1440 1443 1445 1448 1450 1452 1454 1456 1459 1461 1463 1465 1468 1470 1473 1475 1477
1436 1437 1436 1430 1430 1428 1427 1427 1428 1430 1432 1433 1434 1428 1418 1418 1419 1421 1423 1425 1426 1428 1429 1431 1433 1434 1436 1438 1441 1443 1445 1448 1450 1453 1455 1457 1459 1461 1463 1466 1468 1470 1472 1474
1435 1434 1435 1430 1425 1427 1428 1427 1426 1429 1434 1430 1426 1422 1421 1421 1422 1422 1423 1424 1425 1426 1428 1429 1431 1432 1434 1436 1438 1441 1443 1446 1448 1451 1453 1455 1457 1459 1462 1464 1466 1468 1470 1472
1434 1433 1428 1424 1422 1424 1424 1424 1424 1426 1426 1429 1422 1418 1418 1420 1420 1421 1422 1423 1424 1425 1426 1427 1428 1430 1432 1434 1436 1439 1441 1444 1446 1449 1451 1453 1456 1458 1460 1462 1464 1466 1468 1469
1435 1434 1429 1426 1421 1421 1420 1419 1419 1420 1420 1420 1418 1416 1414 1416 1418 1419 1420 1421 1422 1423 1424 1425 1426 1428 1430 1432 1434 1436 1438 1441 1444 1447 1449 1451 1453 1456 1458 1460 1462 1464 1466 1467
1436 1435 1433 1429 1422 1421 1421 1415 1415 1416 1415 1417 1418 1415 1414 1415 1416 1417 1418 1418 1420 1420 1422 1423 1424 1426 1428 1429 1431 1434 1436 1439 1442 1444 1446 1448 1451 1453 1455 1457 1459 1461 1463 1464
1433 1433 1432 1429 1427 1431 1416 1410 1410 1410 1411 1413 1412 1412 1412 1412 1413 1414 1414 1415 1417 1418 1419 1420 1422 1423 1425 1427 1429 1432 1434 1437 1439 1441 1443 1446 1448 1450 1452 1454 1456 1458 1460 1461
1426 1429 1430 1429 1427 1418 1414 1411 1411 1411 1411 1412 1411 1411 1410 1410 1411 1412 1413 1414 1415 1416 1417 1418 1420 1421 1423 1425 1427 1430 1432 1434 1436 1438 1441 1443 1445 1447 1449 1451 1453 1455 1456 1458
1422 1425 1429 1426 1425 1422 1419 1413 1409 1411 1413 1412 1411 1410 1410 1410 1413 1413 1412 1412 1413 1414 1415 1416 1418 1419 1421 1423 1425 1427 1429 1431 1433 1436 1438 1440 1442 1444 1446 1448 1450 1452 1453 1454
1424 1425 1426 1424 1423 1420 1418 1413 1409 1417 1418 1413 1410 1410 1410 1411 1412 1412 1411 1411 1412 1412 1414 1415 1416 1417 1419 1422 1423 1425 1427 1429 1431 1434 1435 1437 1439 1441 1443 1444 1446 1448 1449 1450
1425 1425 1423 1422 1423 1424 1418 1415 1417 1417 1414 1413 1411 1410 1410 1410 1410 1410 1411 1411 1411 1412 1413 1414 1415 1417 1418 1420 1421 1423 1425 1427 1429 1431 1433 1434 1436 1437 1439 1441 1442 1444 1445 1446
1426 1427 1424 1425 1427 1422 1419 1418 1417 1415 1414 1413 1412 1411 1411 1410 1410 1410 1411 1411 1412 1413 1413 1415 1415 1416 1417 1419 1420 1422 1423 1425 1427 1429 1430 1431 1433 1435 1436 1437 1439 1440 1441 1442
1427 1426 1425 1424 1423 1422 1420 1419 1418 1416 1415 1413 1412 1412 1411 1411 1411 1411 1411 1412 1412 1413 1414 1414 1415 1416 1417 1418 1420 1421 1422 1423 1425 1426 1427 1428 1430 1431 1433 1434 1435 1436 1437 1438
1434 1430 1428 1427 1425 1423 1421 1421 1420 1417 1415 1414 1412 1412 1412 1411 1411 1411 1412 1412 1413 1413 1414 1414 1415 1415 1416 1417 1418 1419 1421 1422 1422 1424 1425 1426 1427 1428 1429 1430 1432 1433 1434 1435
1436 1435 1433 1431 1429 1428 1425 1422 1421 1418 1416 1414 1413 1411 1411 1411 1411 1411 1412 1412 1412 1412 1413 1414 1415 1415 1416 1417 1418 1419 1419 1420 1420 1421 1422 1423 1425 1425 1426 1427 1428 1429 1431 1431